Regional Weather Roundup
Issued by NWS

Home | Current Version | Previous Version | Text Only | Print | Product List | Glossary On
Versions: 1 2 3 4 5 6 7 8 9 10 11 12 13 14 15 16 17 18 19 20 21 22 23 24 25 26 27 28 29 30 31 32 33 34 35 36 37 38 39 40 41 42 43 44 45 46 47 48 49 50
000
ASUS42 KFFC 060010
RWRGA
WEATHER ROUNDUP FOR GEORGIA
NATIONAL WEATHER SERVICE PEACHTREE CITY GA
700 PM EST SUN DEC 05 2021

NOTE: "FAIR" INDICATES FEW OR NO CLOUDS BELOW 12,000 FEET WITH NO
SIGNIFICANT WEATHER AND/OR OBSTRUCTIONS TO VISIBILITY.

* = USE WITH CAUTION. THE STATIONS MARKED WITH AN ASTERISK MAY NOT
REPORT WEATHER SUCH AS PRECIPITATION, FOG, OR THUNDER AND ARE NOT
QUALITY CONTROLLED BY NWS.

THE REMARK "TC" DENOTES TEMPERATURE READING IN DEGREES CELSIUS.

GAZ001>058-060100-
NORTH GEORGIA

CITY           SKY/WX    TMP DP  RH WIND       PRES   REMARKS
ATLANTA        MOCLDY    60  52  74 E7        30.11R
6HR MIN TEMP:  60; 6HR MAX TEMP:  65; 6HR PCP: TRACE;

ATHENS         CLOUDY    58  51  78 E8        30.14S
6HR MIN TEMP:  58; 6HR MAX TEMP:  64;

CHAMBLEE       CLOUDY    59  52  77 VRB3      30.12R
6HR MIN TEMP:  57; 6HR MAX TEMP:  60; 6HR PCP: TRACE;

PEACHTREE CITY CLEAR     58  55  90 CALM      30.11R FOG
6HR MIN TEMP:  57; 6HR MAX TEMP:  69;

ROME           PTCLDY    60  53  77 SE5       30.07R
6HR MIN TEMP:  60; 6HR MAX TEMP:  64;

WEST ATLANTA   CLOUDY    60  53  77 NE3       30.11R
6HR MIN TEMP:  59; 6HR MAX TEMP:  63; 6HR PCP: TRACE;

GAINESVILLE    PTCLDY    55  50  83 NE5       30.16R
6HR MIN TEMP:  54; 6HR MAX TEMP:  58; 6HR PCP:  0.03;

CARTERSVILLE   CLOUDY    57  54  88 VRB6      30.11R


CITY           SKY/WX    TMP DP  RH WIND       PRES   REMARKS
DALTON*        CLOUDY    59  54  82 CALM      30.11R
LAWRENCEVILLE* PTCLDY    56  52  86 NE5       30.14R
MARIETTA       CLOUDY    58  51  77 E5        30.11R
KENNESAW*      CLOUDY    57  52  83 E6        30.13R
CANTON*        CLOUDY    55  54  94 CALM      30.14R
BLAIRSVILLE*   CLOUDY    55  51  87 E3        30.13S
$$

GAZ059>098-102>109-060100-
CENTRAL GEORGIA

CITY           SKY/WX    TMP DP  RH WIND       PRES   REMARKS
AUGUSTA-BUSH   PTCLDY    60  53  77 CALM      30.13R
6HR MIN TEMP:  60; 6HR MAX TEMP:  75;

AUGUSTA-DANIEL CLEAR     64  55  72 E7        30.14R
6HR MIN TEMP:  64; 6HR MAX TEMP:  74;

COLUMBUS       CLEAR     65  52  62 S3        30.10R
6HR MIN TEMP:  64; 6HR MAX TEMP:  74;

MACON          CLEAR     63  53  70 SE5       30.12R
6HR MIN TEMP:  61; 6HR MAX TEMP:  75;

ROBINS AFB     PTCLDY    59  54  85 CALM      30.11R


CITY           SKY/WX    TMP DP  RH WIND       PRES   REMARKS
LAGRANGE*      CLEAR     56  55  97 CALM      30.10R
SYLVANIA*      CLEAR     55  52  89 CALM      30.15R
MILLEDGEVILLE* PTCLDY    64  55  72 CALM      30.14R
$$

GAZ099>101-110>166-060100-
SOUTH GEORGIA

CITY           SKY/WX    TMP DP  RH WIND       PRES   REMARKS
SAVANNAH       CLEAR     62  56  80 SE3       30.15R
6HR MIN TEMP:  62; 6HR MAX TEMP:  73;

VALDOSTA       CLEAR     56  53  90 CALM      30.13S
6HR MIN TEMP:  56; 6HR MAX TEMP:  70;

ALMA           CLEAR     55  54  96 CALM      30.13R
6HR MIN TEMP:  55; 6HR MAX TEMP:  73;

ST SIMONS      CLEAR     62  60  93 SE6       30.15R
6HR MIN TEMP:  62; 6HR MAX TEMP:  72;

FT STEWART     CLEAR     59  55  87 E3        30.12R
ALBANY         CLEAR     62  54  74 CALM      30.13R
HUNTER AFB     CLEAR     58  54  85 SE6       30.12R
BRUNSWICK      CLEAR     58  56  92 CALM      30.15R


CITY           SKY/WX    TMP DP  RH WIND       PRES   REMARKS
BAINBRIDGE*    CLEAR     60  56  87 S6        30.12R
MOULTRIE*      CLEAR     59  55  88 CALM      30.14R
VIDALIA*       CLEAR     59  54  82 CALM      30.13S
WAYCROSS*      CLEAR     58  57  96 CALM      30.14R
DOUGLAS*       CLEAR    N/A N/A N/A CALM      30.15R
$$



USA.gov is the U.S. government's official web portal to all federal, state and local government web resources and services.